Wetbulb
56.99 57.26 57.41 57.45 57.48 57.69 57.78 58.05 58.40 58.92 59.19 59.45 59.57 59.54 59.56 59.49 58.97 57.36 53.57 59.28 59.24 63.17 63.91 54.86 56.02 55.51 55.74 54.18 51.81 50.48 49.43 46.48 46.48 46.88 48.64 50.14 53.63 51.55 52.41 52.68 51.36 52.76 52.77 57.63 67.32
56.87 57.07 57.21 57.27 57.31 57.59 57.73 58.04 58.43 58.88 59.01 59.36 59.45 59.42 59.39 59.49 56.59 53.80 62.75 64.46 65.77 65.63 54.45 54.02 53.47 54.56 53.66 51.27 51.46 51.12 49.32 46.95 48.47 49.52 49.78 49.92 51.42 51.19 51.15 51.07 51.84 55.75 58.86 63.73 69.17
56.54 56.86 56.94 57.06 57.18 57.46 57.57 58.07 58.53 58.92 59.07 59.12 59.05 59.05 59.24 59.09 50.89 51.19 64.17 65.88 66.17 63.65 56.40 55.63 54.65 52.82 51.00 51.67 49.17 47.77 48.68 48.30 49.30 49.55 50.65 50.15 49.67 50.34 51.13 49.96 53.32 55.02 59.66 65.66 68.16
56.30 56.75 56.86 56.70 57.01 57.19 57.52 58.00 58.57 58.85 59.03 58.78 58.68 59.10 59.68 57.01 45.45 53.99 66.65 67.52 66.76 59.48 55.69 54.02 52.79 51.01 49.75 48.96 49.35 48.50 47.97 49.30 49.79 49.88 49.60 49.28 50.12 49.90 50.33 50.45 53.30 57.35 62.02 65.32 65.79
56.25 56.50 56.63 56.57 56.84 57.18 57.43 57.89 58.25 58.43 58.41 58.19 58.74 59.57 58.11 51.51 50.99 56.51 66.09 67.56 62.01 56.79 53.60 52.84 51.21 50.49 48.60 48.24 48.91 48.54 48.82 49.05 48.64 49.28 49.63 50.08 49.14 49.56 50.58 50.87 51.95 57.29 61.18 62.07 61.61
56.12 56.15 56.31 56.72 57.00 57.17 57.16 56.98 56.95 57.23 57.67 58.22 59.29 59.58 55.00 48.12 55.42 58.15 55.16 55.34 54.64 54.06 52.38 52.65 50.96 51.58 50.17 48.64 48.64 48.68 48.39 48.20 49.42 48.87 49.42 49.32 49.11 50.27 52.31 52.63 53.82 57.45 58.90 60.46 61.15
55.70 55.62 55.88 56.39 57.12 57.31 57.11 56.59 56.39 56.84 57.88 58.81 60.20 56.65 53.59 51.15 58.50 58.38 56.55 54.78 54.04 53.63 52.50 52.78 52.62 52.08 51.13 49.48 49.42 48.30 48.43 50.02 49.31 48.28 48.28 49.22 47.67 48.98 52.82 51.63 54.50 56.36 58.41 59.81 60.87
55.92 55.45 55.74 56.27 57.03 57.22 57.31 57.00 56.59 57.44 58.43 59.38 59.85 55.75 52.67 57.64 58.54 55.67 56.25 55.31 54.81 54.19 53.41 53.60 53.28 52.83 51.73 50.42 49.23 47.39 47.63 46.48 48.83 48.66 48.99 48.39 45.75 50.46 53.04 51.92 52.33 55.77 57.78 59.22 59.88
55.82 55.39 55.37 55.93 56.51 57.12 56.82 56.16 57.03 58.23 58.74 58.93 56.23 52.91 51.53 59.44 55.08 55.72 55.53 53.91 54.21 54.40 54.72 53.80 53.51 50.28 50.23 48.70 47.12 46.99 44.60 45.38 46.21 49.88 48.45 49.54 46.49 50.76 52.75 51.83 50.84 55.30 57.46 58.13 58.47
55.76 55.29 55.37 55.66 56.15 56.29 55.55 55.54 57.32 58.12 59.23 58.25 53.63 51.92 54.11 52.54 55.21 54.87 55.38 54.51 53.07 53.21 52.85 52.65 50.77 49.66 48.68 48.44 41.79 43.97 44.42 44.98 45.13 47.61 49.76 48.33 47.64 50.18 51.44 50.33 52.21 55.51 57.09 57.27 57.87
55.60 55.07 54.99 55.33 55.70 55.13 54.91 55.46 54.63 53.49 54.52 51.12 51.38 51.60 52.23 55.52 55.23 53.05 54.59 53.76 53.23 52.36 48.73 49.44 48.49 45.61 46.82 47.27 46.71 46.51 45.97 44.97 45.77 47.18 47.97 46.33 47.04 48.46 50.50 52.05 53.15 54.55 55.57 56.29 56.97
55.15 55.03 55.13 55.25 55.45 54.80 55.25 55.30 54.35 53.82 51.04 52.92 51.71 52.09 53.50 54.91 51.96 53.17 54.74 51.08 50.67 47.61 47.98 48.39 45.62 46.88 47.31 47.51 47.58 46.77 45.50 44.47 45.56 47.83 48.42 46.39 46.37 48.39 49.77 49.36 53.20 54.54 55.23 55.82 56.61
54.27 54.25 54.72 54.99 54.81 56.10 56.08 55.65 56.48 55.37 50.90 51.77 52.80 52.07 53.52 54.68 51.18 51.21 52.88 50.60 49.03 47.24 46.78 46.44 46.39 47.64 47.92 46.74 46.51 45.28 44.88 44.32 44.19 45.53 47.67 46.35 44.92 46.62 48.91 51.16 52.52 54.24 55.52 56.64 57.20
53.78 53.89 54.15 53.88 56.14 54.81 56.08 56.60 55.67 56.12 50.05 51.19 52.07 53.22 52.53 51.91 49.54 53.22 52.98 51.41 49.09 46.97 46.70 47.32 47.91 47.42 46.78 45.41 46.21 43.76 46.48 45.71 44.57 43.88 41.27 44.20 39.36 44.47 47.11 48.22 50.59 52.08 53.47 53.44 53.44
53.50 53.82 53.76 53.35 56.89 56.32 56.94 55.96 56.30 58.08 39.11 50.58 50.68 54.06 51.09 49.72 50.33 51.39 53.85 52.36 47.89 47.85 48.58 46.55 46.87 46.36 45.74 45.57 46.44 45.02 46.74 45.13 44.26 43.77 42.76 41.76 40.40 43.10 47.25 46.13 48.59 50.54 51.61 51.68 52.49
53.04 53.58 53.25 53.84 54.66 55.86 55.12 56.32 58.63 49.68 39.13 47.03 49.26 48.06 47.82 48.81 48.96 51.30 51.88 54.38 51.79 49.58 50.16 48.30 50.51 48.36 47.83 47.16 47.42 46.80 45.57 43.97 43.49 43.19 38.81 40.57 41.09 41.33 44.09 47.24 49.32 50.84 51.15 51.34 51.92
52.65 52.70 53.64 53.58 53.16 53.72 56.18 56.66 48.05 43.77 50.14 46.39 47.39 48.44 46.73 46.74 47.64 48.52 48.40 49.27 47.70 44.40 44.74 47.51 47.48 49.47 49.33 47.00 47.83 47.05 45.66 40.65 38.59 38.37 37.04 40.86 39.86 43.36 47.05 48.26 51.19 51.00 51.39 51.44 51.34
51.41 51.67 53.50 57.08 56.80 56.31 57.13 51.84 42.59 46.06 45.72 49.66 48.49 47.98 46.87 49.00 48.07 47.92 47.25 46.59 48.42 47.21 45.35 43.40 40.98 47.00 49.44 46.80 45.50 43.89 44.25 40.31 32.78 34.77 37.46 39.35 37.95 43.13 46.40 48.62 50.06 51.17 51.80 51.51 50.81
50.71 58.82 58.62 57.97 57.16 57.01 53.13 45.31 44.90 46.34 48.10 47.58 47.95 46.06 45.93 47.82 47.77 47.57 46.76 46.34 47.13 48.00 45.36 43.47 42.40 47.39 48.16 48.11 47.14 43.85 43.04 43.49 38.89 37.13 36.50 40.19 41.31 44.63 47.60 47.70 48.84 49.21 50.05 50.47 50.62
56.28 57.40 56.40 56.28 57.16 57.00 51.71 43.91 47.31 49.61 49.34 48.74 44.23 46.48 43.87 45.97 46.36 46.67 46.01 48.26 46.65 48.19 48.96 45.89 41.87 45.24 47.44 47.94 46.64 45.93 45.16 40.34 41.23 32.85 31.25 36.76 37.07 41.17 43.07 45.74 47.97 49.12 50.09 50.58 50.81
54.94 54.60 56.98 55.75 58.32 54.32 47.70 46.62 48.08 50.86 50.49 48.30 46.09 45.10 45.91 45.02 45.95 46.11 45.31 47.54 49.00 47.56 48.79 46.73 45.33 43.85 44.79 42.85 41.92 43.62 42.36 40.36 40.70 38.62 34.29 32.77 37.99 43.84 44.75 45.83 46.39 48.46 49.67 50.44 50.67
53.00 50.92 57.10 56.41 51.16 46.60 47.05 46.60 46.57 49.39 51.13 49.95 49.94 48.18 46.69 46.04 45.25 45.74 45.57 46.39 49.49 48.63 45.48 45.90 45.22 41.48 39.70 43.44 44.41 44.55 41.70 41.38 39.39 35.29 37.80 36.33 37.21 45.99 46.35 47.26 47.78 48.07 48.85 49.67 50.85
50.57 50.82 56.47 56.22 46.32 46.24 48.01 47.41 48.41 48.44 48.50 48.32 47.21 48.07 48.28 46.13 43.98 46.16 46.70 48.22 48.78 48.05 46.31 46.50 42.76 39.70 38.06 41.96 44.38 42.73 42.80 42.01 40.52 39.47 36.41 34.14 37.53 45.85 46.64 46.48 47.25 47.09 48.50 49.86 50.22
50.37 47.45 50.58 50.38 48.25 46.83 45.38 46.04 46.29 49.96 48.35 48.44 47.81 48.62 47.20 45.48 46.36 44.90 45.81 46.81 48.58 47.60 46.84 47.91 41.65 42.07 38.67 39.36 41.46 39.05 40.96 41.90 40.58 37.02 36.27 36.77 38.42 43.53 44.37 45.00 46.74 48.31 49.47 49.71 49.66
48.36 45.79 46.22 43.87 45.56 46.21 45.93 45.60 44.86 45.31 48.61 48.52 47.14 47.13 46.51 43.91 44.31 44.11 45.85 46.02 47.12 47.60 47.14 47.23 42.33 40.62 40.77 40.04 40.38 40.61 40.53 40.91 39.41 39.75 35.47 38.26 39.25 43.33 44.85 46.03 47.75 49.10 49.27 48.72 48.64
47.90 46.57 46.95 45.32 44.63 45.56 44.25 44.96 44.62 45.53 45.77 45.46 46.16 46.58 46.37 45.32 45.83 44.13 45.32 45.34 45.55 46.75 46.22 44.88 41.78 41.89 39.57 40.87 41.19 39.52 41.13 40.66 40.45 40.32 39.80 40.33 40.80 46.27 47.32 48.40 47.56 47.88 47.98 47.55 48.03
48.08 48.60 48.33 42.55 44.49 44.59 44.86 44.95 45.17 46.41 46.90 47.31 47.26 46.85 45.36 46.41 48.68 48.71 48.38 46.90 46.38 45.47 44.35 43.80 42.68 40.06 35.36 38.30 38.16 36.66 38.92 40.07 41.08 42.80 42.35 39.04 43.50 46.39 45.58 45.79 46.72 47.38 47.73 47.36 47.83
MSLP
1016.46 1016.28 1016.14 1016.01 1015.82 1015.59 1015.37 1015.13 1014.86 1014.58 1014.33 1014.13 1013.90 1013.70 1013.46 1013.20 1012.83 1012.68 1011.52 1010.80 1010.79 1010.84 1010.85 1010.56 1010.37 1010.18 1009.99 1009.89 1010.10 1010.03 1009.38 1009.27 1009.31 1009.21 1009.04 1009.48 1009.55 1010.43 1010.58 1010.66 1011.53 1012.00 1012.05 1012.59 1013.09
1016.37 1016.21 1016.04 1015.86 1015.68 1015.47 1015.26 1015.02 1014.73 1014.44 1014.19 1013.99 1013.74 1013.46 1013.19 1013.00 1012.33 1011.40 1010.68 1010.70 1010.84 1010.79 1010.58 1010.37 1010.10 1009.94 1009.73 1009.85 1009.84 1009.48 1009.39 1009.38 1009.49 1009.43 1009.17 1009.46 1009.68 1010.22 1010.66 1011.03 1011.80 1012.20 1012.73 1013.13 1013.44
1016.34 1016.15 1015.94 1015.75 1015.55 1015.35 1015.14 1014.90 1014.64 1014.36 1014.09 1013.82 1013.49 1013.18 1012.94 1012.69 1011.78 1011.01 1010.57 1010.57 1010.74 1010.77 1010.61 1010.45 1010.19 1009.82 1009.64 1009.80 1009.91 1009.73 1009.33 1009.66 1009.72 1009.79 1009.63 1009.75 1010.11 1010.66 1010.81 1011.18 1011.18 1011.54 1012.42 1013.24 1013.72
1016.29 1016.08 1015.87 1015.66 1015.47 1015.26 1015.04 1014.79 1014.52 1014.21 1013.93 1013.62 1013.22 1012.88 1012.59 1012.28 1011.63 1010.77 1010.59 1010.64 1010.80 1010.66 1010.48 1010.28 1009.94 1009.62 1009.65 1009.63 1009.99 1009.72 1009.92 1009.86 1009.86 1010.23 1010.17 1010.26 1010.67 1010.99 1011.60 1012.05 1011.71 1011.93 1012.80 1013.83 1014.42
1016.19 1015.97 1015.75 1015.52 1015.29 1015.06 1014.81 1014.56 1014.29 1014.00 1013.76 1013.45 1013.03 1012.67 1012.32 1011.65 1010.95 1010.58 1010.58 1010.79 1010.76 1010.61 1010.36 1010.04 1009.70 1009.74 1009.70 1009.88 1009.96 1009.86 1010.06 1010.31 1010.55 1010.50 1010.53 1010.85 1011.04 1011.51 1012.65 1012.81 1012.45 1013.18 1013.92 1014.65 1015.35
1016.08 1015.83 1015.61 1015.39 1015.16 1014.90 1014.61 1014.33 1014.08 1013.83 1013.61 1013.29 1012.93 1012.53 1012.07 1011.22 1010.51 1010.57 1010.50 1010.51 1010.35 1010.31 1010.20 1009.95 1009.83 1009.83 1009.91 1010.06 1010.01 1010.39 1010.43 1010.66 1010.77 1010.86 1011.06 1011.12 1011.79 1012.20 1013.33 1013.66 1013.22 1013.63 1014.55 1015.25 1015.70
1016.00 1015.73 1015.47 1015.21 1014.95 1014.68 1014.40 1014.12 1013.85 1013.62 1013.44 1013.16 1012.92 1012.57 1011.79 1010.84 1010.40 1010.37 1010.19 1010.02 1010.08 1010.03 1009.89 1009.99 1009.96 1009.89 1010.02 1010.09 1010.59 1010.67 1010.70 1010.89 1011.29 1011.49 1011.56 1011.90 1012.44 1014.00 1014.66 1014.15 1014.00 1014.35 1014.97 1015.48 1016.01
1015.92 1015.63 1015.34 1015.05 1014.73 1014.38 1014.08 1013.86 1013.59 1013.38 1013.22 1013.02 1012.86 1012.40 1011.11 1010.14 1010.12 1010.05 1009.89 1009.80 1009.95 1009.96 1009.94 1010.03 1010.07 1010.08 1010.24 1010.63 1010.74 1010.77 1011.14 1011.01 1011.81 1011.90 1012.23 1012.33 1012.90 1014.46 1015.09 1014.89 1014.46 1014.81 1015.31 1015.81 1016.45
1015.85 1015.51 1015.18 1014.82 1014.43 1014.06 1013.81 1013.48 1013.17 1013.08 1013.04 1012.92 1012.75 1012.09 1010.63 1009.80 1009.87 1009.83 1009.77 1009.70 1009.77 1009.92 1010.05 1010.18 1010.22 1010.61 1010.80 1010.42 1010.72 1011.11 1010.95 1011.32 1012.03 1012.56 1012.35 1012.59 1013.85 1015.09 1015.47 1015.04 1014.69 1015.08 1015.52 1016.18 1016.87
1015.78 1015.38 1015.00 1014.64 1014.25 1013.92 1013.49 1013.18 1012.95 1012.86 1012.92 1012.71 1012.46 1012.14 1010.68 1010.43 1010.11 1009.82 1009.68 1009.69 1009.70 1009.85 1010.02 1010.23 1010.55 1010.65 1010.77 1010.52 1010.39 1010.89 1011.25 1011.90 1012.26 1013.19 1013.45 1013.91 1015.05 1015.77 1015.87 1015.08 1015.14 1015.63 1016.04 1016.52 1017.02
1015.62 1015.17 1014.76 1014.42 1014.04 1013.78 1013.09 1012.97 1013.27 1012.99 1012.58 1012.39 1012.09 1011.57 1010.93 1010.32 1010.24 1009.73 1009.63 1009.69 1009.87 1010.03 1010.21 1010.75 1010.46 1010.48 1010.66 1010.74 1010.94 1011.22 1011.49 1011.94 1012.91 1013.72 1014.22 1015.19 1015.77 1016.28 1016.50 1016.19 1016.07 1016.34 1016.68 1017.07 1017.56
1015.51 1014.99 1014.53 1014.16 1013.77 1013.48 1013.38 1013.19 1013.65 1013.70 1012.87 1012.01 1011.75 1011.40 1010.90 1010.59 1010.21 1009.77 1009.69 1009.84 1010.03 1010.28 1010.67 1010.80 1010.82 1011.22 1011.30 1011.30 1011.29 1011.55 1011.83 1012.45 1013.47 1014.12 1014.46 1015.61 1016.21 1016.91 1017.21 1017.36 1017.01 1016.91 1017.14 1017.46 1018.01
1015.37 1014.82 1014.32 1013.89 1013.51 1013.24 1013.43 1013.48 1013.41 1013.46 1012.97 1011.81 1011.30 1010.87 1010.51 1010.52 1010.17 1009.93 1009.90 1010.15 1010.37 1010.56 1010.76 1010.74 1011.34 1011.57 1011.45 1011.76 1011.67 1012.20 1012.27 1012.81 1013.32 1014.27 1014.98 1015.40 1016.05 1016.84 1017.59 1017.74 1017.81 1017.79 1017.77 1017.92 1018.11
1015.24 1014.67 1014.16 1013.58 1013.54 1013.67 1013.36 1013.31 1013.21 1013.16 1012.47 1011.76 1010.94 1010.45 1010.45 1010.26 1010.20 1010.03 1010.03 1010.26 1010.54 1010.96 1011.16 1011.35 1011.66 1011.69 1011.83 1012.00 1012.22 1012.42 1012.87 1013.19 1013.59 1014.03 1014.40 1015.37 1015.19 1016.62 1017.45 1017.82 1017.96 1017.98 1018.04 1018.30 1018.74
1015.21 1014.60 1014.19 1013.83 1013.52 1013.45 1013.46 1013.18 1013.05 1012.97 1012.23 1011.61 1010.65 1010.22 1010.28 1010.36 1010.45 1010.27 1010.37 1010.21 1010.88 1011.36 1011.63 1011.93 1011.86 1011.92 1011.98 1012.37 1012.54 1013.00 1013.31 1013.71 1013.96 1014.09 1014.51 1014.97 1015.35 1016.07 1017.06 1017.26 1017.51 1017.88 1018.25 1018.73 1019.08
1015.04 1014.51 1014.20 1013.79 1013.65 1013.40 1013.35 1013.12 1012.97 1012.75 1012.12 1011.36 1010.74 1010.50 1010.53 1010.68 1010.67 1010.63 1010.62 1010.78 1011.50 1011.71 1011.94 1012.25 1012.38 1012.33 1012.40 1012.89 1013.01 1013.50 1013.68 1014.12 1014.48 1014.43 1014.28 1014.83 1015.20 1015.04 1015.84 1015.97 1016.68 1017.39 1018.07 1018.67 1019.11
1015.01 1014.44 1014.09 1014.00 1013.86 1013.43 1013.23 1012.95 1012.97 1012.43 1012.49 1011.95 1011.44 1011.28 1011.17 1011.26 1011.16 1011.22 1011.33 1011.75 1012.07 1012.28 1012.49 1012.63 1012.73 1012.77 1012.83 1012.95 1013.47 1013.59 1013.83 1013.80 1013.97 1014.13 1014.34 1015.32 1015.33 1014.32 1015.07 1015.60 1015.92 1016.81 1017.83 1018.74 1019.32
1014.91 1014.54 1014.27 1013.94 1013.83 1013.49 1013.18 1013.21 1013.09 1013.12 1012.64 1012.39 1012.18 1012.00 1011.95 1012.22 1012.24 1012.19 1012.31 1012.68 1013.06 1013.05 1013.21 1013.23 1013.39 1013.52 1013.55 1013.58 1013.78 1014.31 1014.64 1014.61 1014.61 1014.71 1014.88 1015.79 1014.97 1014.81 1015.62 1016.15 1016.68 1017.06 1017.92 1018.69 1019.12
1014.69 1014.36 1014.14 1013.93 1013.71 1013.46 1013.45 1013.58 1013.69 1013.50 1013.20 1012.76 1012.60 1012.60 1012.80 1012.95 1013.07 1013.03 1013.39 1013.65 1013.95 1013.90 1013.83 1013.96 1014.12 1014.30 1014.36 1014.28 1014.65 1015.03 1015.32 1015.98 1015.87 1016.56 1016.11 1015.31 1015.36 1015.49 1016.02 1016.58 1017.15 1017.71 1018.22 1018.51 1018.87
1015.31 1014.75 1014.49 1014.13 1013.83 1013.61 1013.83 1014.37 1014.27 1013.97 1013.54 1013.17 1013.14 1013.51 1013.52 1013.73 1013.71 1013.84 1014.05 1014.61 1014.64 1014.72 1014.60 1014.64 1014.78 1014.96 1014.97 1015.08 1015.46 1015.36 1016.40 1016.57 1016.61 1016.46 1015.94 1015.75 1015.81 1015.14 1016.28 1016.71 1017.24 1017.58 1017.97 1018.43 1018.85
1015.71 1015.11 1014.50 1014.17 1013.86 1014.10 1014.68 1014.99 1014.69 1014.22 1013.93 1013.69 1013.72 1013.97 1014.32 1014.49 1014.59 1014.69 1014.99 1015.40 1015.44 1015.39 1015.26 1015.37 1015.46 1015.79 1015.71 1016.13 1016.29 1016.39 1016.72 1017.47 1017.75 1017.74 1017.02 1016.55 1015.90 1016.83 1017.37 1017.71 1017.72 1017.69 1018.02 1018.43 1018.61
1016.43 1015.68 1014.86 1014.26 1014.82 1016.01 1015.71 1015.78 1015.37 1014.67 1014.30 1014.11 1014.20 1014.40 1014.69 1015.09 1015.13 1015.28 1015.54 1016.03 1016.25 1016.15 1016.09 1016.56 1016.37 1016.37 1016.98 1017.45 1017.50 1017.38 1017.72 1018.04 1018.04 1018.46 1018.48 1018.25 1017.35 1017.96 1018.28 1018.43 1018.45 1018.39 1018.56 1018.56 1018.58
1017.81 1017.03 1015.40 1014.94 1016.14 1016.74 1016.63 1016.12 1015.68 1015.12 1014.90 1014.73 1014.85 1014.98 1015.19 1015.62 1015.99 1015.97 1016.22 1016.69 1016.71 1016.63 1016.84 1016.93 1017.25 1017.27 1017.58 1017.97 1017.89 1017.94 1018.46 1018.87 1019.23 1019.32 1018.58 1018.26 1017.37 1018.34 1018.65 1018.74 1018.87 1018.76 1018.62 1018.57 1018.60
1018.64 1018.09 1017.39 1017.25 1018.40 1017.85 1017.58 1017.00 1016.29 1015.81 1015.48 1015.36 1015.41 1015.44 1015.66 1016.12 1016.48 1016.50 1016.70 1017.07 1017.23 1017.37 1017.63 1017.50 1017.80 1017.55 1017.58 1017.69 1018.14 1018.43 1018.83 1019.16 1019.33 1019.33 1018.51 1018.00 1017.67 1017.77 1018.41 1018.69 1018.80 1018.67 1018.56 1018.44 1018.46
1019.77 1020.19 1020.25 1019.25 1018.97 1018.80 1018.49 1017.94 1017.15 1016.49 1016.11 1015.82 1015.87 1015.84 1016.02 1016.42 1016.65 1016.80 1017.16 1017.38 1017.66 1017.90 1018.06 1018.02 1018.12 1018.37 1018.31 1018.53 1018.66 1018.61 1018.86 1019.16 1019.16 1019.02 1018.97 1018.14 1018.18 1018.14 1018.54 1018.72 1018.68 1018.52 1018.38 1018.33 1018.13
1020.91 1021.11 1020.89 1020.28 1020.06 1019.43 1018.99 1018.45 1017.91 1017.45 1016.96 1016.22 1016.21 1016.42 1016.61 1016.72 1016.93 1017.08 1017.39 1017.77 1017.79 1018.28 1018.55 1019.01 1019.03 1019.13 1018.88 1019.07 1019.01 1018.77 1018.82 1019.04 1018.98 1018.98 1018.89 1018.66 1018.33 1018.63 1018.83 1018.90 1018.79 1018.42 1018.33 1018.22 1018.12
1021.91 1021.77 1021.27 1020.90 1020.26 1020.07 1019.35 1019.01 1018.51 1018.51 1017.45 1017.09 1016.81 1016.89 1017.10 1017.27 1017.41 1017.68 1017.93 1018.30 1018.52 1018.73 1019.13 1019.55 1019.76 1019.80 1019.32 1019.63 1019.36 1018.79 1018.55 1018.54 1018.59 1018.78 1018.70 1018.34 1018.48 1018.79 1018.75 1018.79 1018.68 1018.46 1018.65 1018.49 1018.31
Wind_Speed
7 7 7 7 7 7 8 8 9 9 9 10 11 10 10 10 8 3 1 1 1 3 2 1 1 2 1 3 2 2 2 4 5 7 4 3 7 4 1 7 3 3 0 4 11
7 7 7 7 7 7 8 9 10 10 10 11 11 11 10 8 2 3 2 2 3 2 2 4 2 1 4 2 2 1 2 5 2 3 6 3 3 7 5 6 4 5 5 6 12
7 7 7 7 8 8 9 9 10 11 11 11 11 11 10 4 1 3 4 6 5 2 1 1 1 1 3 1 2 2 2 4 4 2 6 8 5 2 12 3 7 13 11 9 12
8 7 7 7 7 8 9 10 10 11 11 12 13 12 10 2 4 1 3 5 5 2 1 2 2 2 3 3 2 2 2 2 4 5 5 6 6 8 9 7 8 4 10 8 10
8 8 8 8 8 9 10 10 10 11 11 11 12 11 2 2 3 1 2 6 3 1 3 2 5 2 3 2 3 2 3 3 5 5 5 7 6 8 13 15 5 10 10 11 11
8 8 8 8 9 9 10 11 11 11 10 11 11 12 1 3 1 3 4 3 1 1 2 2 3 2 5 2 2 4 7 5 7 4 4 6 6 1 10 15 7 13 11 12 13
9 9 9 9 9 10 11 11 11 11 10 10 8 3 1 1 1 5 3 1 1 1 2 2 3 0 3 4 2 5 7 7 10 4 3 0 5 9 13 8 10 11 12 13 14
11 9 9 10 10 11 11 11 11 10 9 7 5 1 3 2 4 2 1 1 1 1 1 3 2 5 3 4 4 3 2 3 9 6 4 6 9 8 14 7 9 11 12 14 11
12 10 10 11 11 11 12 13 11 6 4 4 1 2 2 8 3 4 2 1 3 1 4 4 3 3 3 3 3 3 5 6 3 9 1 4 2 13 13 5 11 12 14 13 12
14 12 11 11 11 12 13 5 4 4 2 2 1 2 1 3 4 4 0 0 2 0 2 4 4 2 3 3 5 4 5 5 4 6 11 5 7 11 14 2 11 13 14 13 11
16 14 12 11 11 10 5 1 3 1 2 1 1 2 3 6 3 1 1 1 2 6 2 3 2 4 4 3 5 6 6 5 3 3 5 7 8 13 10 8 11 13 13 12 10
17 15 13 12 11 8 2 5 2 2 5 1 4 5 4 2 3 3 1 2 3 3 1 2 5 0 6 8 9 6 6 4 5 5 3 3 8 8 9 5 8 13 13 11 11
18 16 14 12 10 2 3 4 1 4 1 4 3 3 1 4 1 2 1 1 3 4 5 4 3 5 7 8 7 3 3 2 2 4 5 5 3 4 6 7 8 8 9 10 11
19 16 13 15 1 1 1 3 3 6 1 3 0 0 2 1 2 1 1 1 2 3 1 5 2 7 4 3 1 3 3 3 3 3 4 2 2 3 5 6 7 9 9 9 7
19 16 11 9 3 1 4 7 5 2 3 2 1 1 1 1 1 3 4 2 3 3 3 3 2 2 2 1 2 3 2 3 1 3 2 4 5 6 9 10 12 11 9 5 4
20 14 8 1 1 3 7 2 1 1 2 2 2 2 2 3 2 1 2 6 2 3 6 3 1 2 2 3 3 8 2 3 2 2 4 4 3 7 11 16 14 12 9 6 4
21 11 1 1 3 7 5 1 0 2 2 4 3 3 2 3 2 3 1 3 0 1 0 3 3 3 2 3 3 2 2 4 3 3 3 3 4 4 13 7 15 15 11 7 5
22 4 0 2 6 4 1 2 3 1 2 2 3 3 3 7 3 5 1 3 3 2 3 3 4 5 6 3 2 3 2 3 5 5 5 3 5 2 1 2 3 5 9 8 6
14 1 2 8 5 1 3 3 2 0 3 4 1 3 3 3 3 1 3 2 3 2 3 4 3 1 6 2 3 4 2 2 2 1 3 2 2 4 1 4 4 6 7 7 5
2 2 3 12 4 3 4 2 1 2 4 1 2 2 4 6 4 4 2 2 1 2 3 3 3 1 2 1 10 2 5 3 1 4 4 4 4 4 0 3 3 5 9 5 2
2 2 3 10 1 5 3 1 2 3 3 2 2 2 2 1 1 2 2 4 5 3 2 2 1 3 2 6 3 1 2 5 2 2 4 4 1 2 4 6 8 10 4 2 4
2 1 6 5 4 2 2 3 4 3 4 3 3 2 1 0 1 0 1 2 6 3 1 2 2 2 4 4 2 2 3 2 2 3 0 2 5 3 2 4 4 3 2 4 6
3 3 3 3 2 2 3 1 1 4 4 4 2 2 2 1 2 0 1 1 6 2 2 3 1 2 3 3 3 1 3 4 4 1 7 6 2 2 1 2 1 3 5 7 9
2 2 4 6 2 2 3 3 4 4 1 3 2 1 2 1 3 1 2 3 3 3 6 3 3 4 6 2 1 3 6 3 4 3 3 9 14 9 6 4 4 7 9 10 10
5 3 2 3 3 3 1 1 2 3 2 0 1 1 2 2 1 1 1 1 2 2 2 1 3 2 1 1 3 5 5 5 9 6 6 3 10 13 4 5 7 11 12 12 14
2 2 1 2 3 2 1 1 2 4 3 1 3 3 2 2 3 2 4 3 2 2 2 3 3 1 2 1 4 8 6 7 11 8 12 10 10 2 4 7 11 14 15 15 16
1 2 2 2 1 3 1 1 1 5 3 3 2 4 3 1 1 2 2 4 3 0 3 2 4 3 2 1 6 8 1 3 2 4 3 5 7 3 7 12 14 16 16 16 16
Wind_Direction
338 333 330 328 328 323 320 314 312 310 309 308 310 311 311 314 303 194 85 213 129 136 224 357 101 354 93 87 82 166 125 144 143 177 156 172 156 105 35 115 69 0 46 80 123
341 333 329 327 324 320 315 310 308 308 308 308 308 310 310 319 260 48 325 197 201 270 349 20 41 64 87 75 51 59 127 164 169 141 153 124 119 119 139 135 85 119 104 119 148
341 333 326 323 320 315 309 305 302 302 305 310 310 311 313 304 68 32 341 195 199 221 75 74 101 68 84 44 48 109 99 156 147 123 135 137 121 68 139 165 176 171 165 148 151
338 331 323 316 308 302 298 298 299 304 310 313 313 314 319 234 94 2 345 157 157 152 73 72 64 81 82 100 55 141 73 142 108 126 124 139 115 115 35 350 267 208 134 125 133
340 333 324 314 305 299 296 297 300 304 309 312 313 320 301 68 88 330 324 137 140 153 47 38 46 102 95 114 127 83 116 64 55 82 79 116 113 107 27 345 277 131 101 111 112
345 337 326 316 306 302 301 301 300 300 304 309 317 315 355 95 109 333 334 194 229 181 63 32 52 98 97 76 47 76 83 62 24 49 70 126 93 111 359 335 165 139 111 107 111
351 340 330 320 311 306 301 299 297 297 301 305 314 331 29 167 175 298 279 314 211 214 12 133 139 69 144 120 32 107 106 64 30 350 59 25 101 52 347 343 160 148 128 121 130
351 341 332 321 312 304 298 296 291 294 295 297 306 276 279 223 300 281 197 1 103 228 294 117 141 92 25 121 50 68 84 132 28 359 52 223 168 45 356 333 179 164 147 140 119
349 339 332 323 314 307 306 297 286 276 244 303 293 352 350 319 16 338 266 269 322 73 41 85 80 72 140 125 128 47 138 138 108 29 302 1 67 355 355 310 172 168 155 137 122
346 338 327 318 312 313 311 283 86 144 154 217 207 224 347 328 295 316 264 358 24 65 145 50 56 128 107 174 204 155 138 105 105 21 46 59 29 4 8 13 154 152 142 139 126
345 337 326 321 312 321 328 200 5 33 41 304 315 270 284 293 272 311 330 143 45 58 59 34 177 172 165 145 129 130 136 119 94 27 79 54 35 15 22 77 133 141 141 132 122
344 338 329 322 315 313 251 74 103 352 316 305 262 274 266 277 323 339 349 37 45 53 335 131 89 93 109 122 122 116 123 95 113 100 92 114 59 35 37 68 139 143 140 134 132
343 337 329 322 314 346 41 100 320 190 252 302 229 244 267 176 257 338 15 78 59 56 47 91 63 147 132 123 120 83 120 157 87 125 87 154 106 45 54 93 121 125 128 132 139
342 336 332 320 102 334 73 349 310 193 31 5 79 148 164 214 21 333 51 92 62 60 101 61 54 139 121 106 218 159 179 163 160 217 294 231 291 160 150 145 160 155 157 142 126
340 336 332 353 122 78 349 338 132 212 88 348 65 41 79 195 336 45 1 53 66 33 263 75 129 137 124 98 208 94 97 43 47 180 236 175 253 121 173 195 190 187 177 158 133
340 338 323 96 43 355 332 315 212 235 83 44 4 13 135 26 30 340 58 52 71 64 35 37 346 6 78 74 66 141 118 75 97 161 236 120 299 180 189 211 195 193 193 179 163
340 340 57 318 353 329 325 61 199 66 323 5 360 3 75 358 7 344 55 50 233 155 38 10 21 11 21 137 92 102 340 300 241 227 335 120 266 323 208 209 207 196 187 171 168
336 310 74 67 322 318 32 68 83 331 11 356 8 69 74 4 46 7 38 169 63 79 133 196 187 4 357 31 55 55 307 289 292 283 315 143 244 86 9 0 128 158 161 169 187
321 8 45 346 339 345 80 74 112 252 321 334 91 63 44 30 345 69 41 32 27 351 219 172 192 309 33 41 324 133 197 44 129 95 256 289 213 218 95 134 137 146 177 192 197
18 21 30 335 338 60 76 112 145 276 320 15 78 8 29 9 15 11 22 20 36 8 297 148 170 23 82 200 57 349 112 209 172 269 265 200 256 264 27 247 209 236 228 215 221
36 65 354 345 353 51 79 80 312 315 333 22 142 110 91 32 345 22 16 40 3 25 67 124 269 133 235 22 333 203 155 64 38 300 288 302 227 58 324 326 301 310 269 283 309
16 72 359 337 46 22 73 337 333 341 8 36 82 95 138 126 7 352 251 345 350 315 50 42 80 81 37 9 241 83 100 103 211 175 243 308 274 24 314 322 334 22 355 320 300
32 313 349 332 76 34 346 339 321 8 17 21 80 25 63 96 279 330 114 5 356 49 131 162 46 139 159 180 165 125 115 92 84 33 241 275 315 117 230 258 8 325 313 300 298
4 10 2 45 39 52 12 13 337 340 76 75 118 128 117 136 32 183 168 11 9 72 69 85 127 237 267 14 69 206 180 179 213 201 281 259 299 311 304 258 284 289 289 291 296
12 60 28 6 45 34 311 320 317 321 30 53 122 129 149 182 236 238 219 193 81 15 54 15 221 217 281 259 244 265 240 222 221 238 239 299 301 323 320 282 290 293 297 300 306
28 347 84 76 314 303 33 124 307 323 277 222 213 132 132 171 233 257 195 224 241 93 64 17 142 188 265 315 262 267 256 235 247 252 245 274 291 266 279 280 290 301 315 309 317
81 127 298 73 54 267 155 357 119 334 259 308 223 145 170 37 170 28 64 65 58 296 129 85 140 161 257 338 296 260 125 219 244 204 257 286 338 299 307 320 317 320 315 313 317